TimeEDT,TemperatureF,Dew PointF,Humidity,Sea Level PressureIn,VisibilityMPH,Wind Direction,Wind SpeedMPH,Gust SpeedMPH,PrecipitationIn,Events,Conditions,WindDirDegrees,DateUTC
12:53 AM,46.0,42.1,86,30.19,10.0,Calm,Calm,-,N/A,,Clear,0,2013-09-15 04:53:00
1:53 AM,45.0,41.0,86,30.19,8.0,Calm,Calm,-,N/A,,Clear,0,2013-09-15 05:53:00
2:53 AM,44.1,42.1,93,30.19,8.0,Calm,Calm,-,N/A,,Clear,0,2013-09-15 06:53:00
3:53 AM,45.0,42.1,90,30.19,9.0,Calm,Calm,-,N/A,,Clear,0,2013-09-15 07:53:00
4:53 AM,43.0,39.9,89,30.19,7.0,Calm,Calm,-,N/A,,Clear,0,2013-09-15 08:53:00
5:53 AM,43.0,39.9,89,30.21,7.0,Calm,Calm,-,N/A,,Clear,0,2013-09-15 09:53:00
6:53 AM,43.0,39.9,89,30.21,7.0,Calm,Calm,-,N/A,,Clear,0,2013-09-15 10:53:00
7:53 AM,46.9,43.0,86,30.24,9.0,Calm,Calm,-,N/A,,Clear,0,2013-09-15 11:53:00
8:53 AM,51.1,46.0,83,30.24,10.0,Calm,Calm,-,N/A,,Clear,0,2013-09-15 12:53:00
9:53 AM,55.9,46.9,72,30.24,10.0,Calm,Calm,-,N/A,,Clear,0,2013-09-15 13:53:00
10:53 AM,64.0,48.0,56,30.23,10.0,Calm,Calm,-,N/A,,Clear,0,2013-09-15 14:53:00
11:53 AM,69.1,48.0,47,30.20,10.0,Variable,5.8,-,N/A,,Clear,0,2013-09-15 15:53:00
12:53 PM,72.0,48.0,43,30.18,10.0,South,5.8,-,N/A,,Clear,180,2013-09-15 16:53:00
1:53 PM,73.9,48.0,40,30.16,10.0,South,6.9,-,N/A,,Clear,180,2013-09-15 17:53:00
2:53 PM,75.9,48.9,38,30.13,10.0,Variable,5.8,-,N/A,,Clear,0,2013-09-15 18:53:00
3:53 PM,77.0,50.0,39,30.11,10.0,SE,5.8,-,N/A,,Clear,140,2013-09-15 19:53:00
4:53 PM,75.0,51.1,43,30.09,10.0,SSE,9.2,-,N/A,,Clear,150,2013-09-15 20:53:00
5:53 PM,73.0,52.0,48,30.09,10.0,SE,5.8,-,N/A,,Clear,140,2013-09-15 21:53:00
6:53 PM,71.1,53.1,53,30.09,10.0,SSE,6.9,-,N/A,,Partly Cloudy,160,2013-09-15 22:53:00
7:53 PM,68.0,54.0,61,30.09,10.0,South,5.8,-,N/A,,Clear,170,2013-09-15 23:53:00
8:53 PM,66.9,54.0,63,30.09,10.0,Calm,Calm,-,N/A,,Scattered Clouds,0,2013-09-16 00:53:00
9:53 PM,64.9,55.0,70,30.09,10.0,Calm,Calm,-,N/A,,Partly Cloudy,0,2013-09-16 01:53:00
10:53 PM,63.0,55.9,78,30.09,10.0,Calm,Calm,-,N/A,,Mostly Cloudy,0,2013-09-16 02:53:00
11:53 PM,62.1,55.0,78,30.09,10.0,Calm,Calm,-,N/A,,Mostly Cloudy,0,2013-09-16 03:53:00